Eagle Creek, IN

1:39 PM EST on November 23, 2017 (GMT -0500)
Eagle Creek

Weather History for KEYE - October, 2012

Change the Weather History Date:

Tuesday, October 23, 2012

  Actual Average Record
Temperature  
Mean Temperature 62 °F 52 °F  
Max Temperature 68 °F 62 °F 73 °F (2000)
Min Temperature 56 °F 43 °F 33 °F (2013)
Degree Days  
Heating Degree Days 3 13  
Month to date heating degree days 265 218  
Since 1 July heating degree days 366 279  
Cooling Degree Days 0 0  
Month to date cooling degree days 0 12  
Year to date cooling degree days 1338 1055  
Growing Degree Days 12 (Base 50)    
Moisture  
Dew Point 56 °F    
Average Humidity 73    
Maximum Humidity 90    
Minimum Humidity 56    
Precipitation  
Precipitation 0.44 in 0.10 in 0.89 in (2004)
Month to date precipitation 4.07 2.34  
Year to date precipitation 33.33 33.24  
Sea Level Pressure  
Sea Level Pressure 30.00 in    
Wind  
Wind Speed 3 mph (SSW)    
Max Wind Speed 16 mph    
Max Gust Speed 23 mph    
Visibility 9 miles    
Events Rain , Thunderstorm    
T = Trace of Precipitation, MM = Missing Value Source: NWS Daily Summary

Daily Weather History Graph

Daily Weather History Graph

Search for Another Location

Airport or City:

Trip Planner

Search our weather history database for the weather conditions in past years. The results will help you decide how hot, cold, wet, or windy it might be!

Date:

Astronomy

Oct. 23, 2012 Rise Set
Actual Time 8:04 AM EDT 6:53 PM EDT
Civil Twilight 7:36 AM EDT 7:21 PM EDT
Nautical Twilight 7:05 AM EDT 7:52 PM EDT
Astronomical Twilight 6:34 AM EDT 8:24 PM EDT
Moon 3:36 PM EDT 1:56 AM EDT
Length of Visible Light 11h 44m
Length of Day
10h 49m
Waxing Gibbous, 66% of the Moon is Illuminated
Oct 23
Waxing Gibbous
Oct 29
Full
Nov 6
Last Quarter
Nov 13
New
Nov 20
First Quarter

Hourly Weather History & Observations

Time (EDT) Temp. Dew Point Humidity Pressure Visibility Wind Dir Wind Speed Gust Speed Precip Events Conditions
12:53 AM 59.0 °F 54.0 °F 83% 29.98 in 10.0 mi Calm Calm - N/A   Mostly Cloudy
2:53 AM 64.0 °F 51.1 °F 63% 29.97 in 10.0 mi SSW 6.9 mph - N/A   Partly Cloudy
3:53 AM 64.9 °F 51.1 °F 61% 29.97 in 10.0 mi Variable 4.6 mph - N/A   Overcast
4:53 AM 66.0 °F 51.1 °F 59% 29.97 in 10.0 mi SSW 5.8 mph - N/A   Overcast
5:53 AM 66.0 °F 50.0 °F 56% 29.96 in 10.0 mi SSW 6.9 mph - N/A   Overcast
6:53 AM 66.9 °F 50.0 °F 54% 29.97 in 10.0 mi SSW 11.5 mph - N/A   Overcast
7:53 AM 64.0 °F 52.0 °F 65% 29.99 in 10.0 mi WSW 12.7 mph 21.9 mph 0.02 in Thunderstorm Overcast
8:25 AM 59.0 °F 55.4 °F 88% 30.01 in 2.5 mi SW 9.2 mph - 0.14 in Rain , Thunderstorm Heavy Thunderstorms and Rain
8:53 AM 57.9 °F 55.9 °F 93% 30.02 in 7.0 mi Variable 4.6 mph - 0.23 in Rain , Thunderstorm Light Thunderstorms and Rain
9:07 AM 57.2 °F 55.4 °F 94% 30.03 in 7.0 mi SW 4.6 mph - 0.02 in Rain , Thunderstorm Light Rain
9:45 AM 57.2 °F 55.4 °F 94% 30.04 in 9.0 mi SE 3.5 mph - 0.03 in   Overcast
9:53 AM 57.9 °F 55.9 °F 93% 30.04 in 9.0 mi SSE 3.5 mph - 0.03 in Rain , Thunderstorm Light Rain
10:15 AM 59.0 °F 55.4 °F 88% 30.05 in 10.0 mi ESE 3.5 mph - 0.00 in   Overcast
10:53 AM 59.0 °F 57.0 °F 93% 30.06 in 10.0 mi Calm Calm - 0.02 in Rain Light Rain
11:08 AM 57.2 °F 57.2 °F 100% 30.07 in 7.0 mi ESE 3.5 mph - 0.03 in Rain , Thunderstorm Light Rain
11:53 AM 59.0 °F 55.9 °F 90% 30.06 in 3.0 mi Calm Calm - 0.06 in   Overcast
12:03 PM 59.0 °F 57.2 °F 94% 30.06 in 3.0 mi Calm Calm - 0.02 in Rain Light Rain
12:53 PM 60.1 °F 57.0 °F 90% 30.05 in 4.0 mi North - - 0.05 in Rain Rain
2:53 PM 64.9 °F 57.9 °F 78% 29.99 in 10.0 mi Calm Calm - N/A   Partly Cloudy
3:53 PM 66.9 °F 57.9 °F 73% 29.98 in 10.0 mi South 5.8 mph - N/A   Clear
4:53 PM 68.0 °F 57.9 °F 70% 29.96 in 10.0 mi SW 4.6 mph - N/A   Overcast
5:53 PM 66.9 °F 59.0 °F 76% 29.96 in 10.0 mi Calm Calm - 0.01 in   Overcast
6:53 PM 64.9 °F 59.0 °F 81% 29.97 in 10.0 mi Calm Calm - 0.01 in   Overcast
7:53 PM 64.0 °F 60.1 °F 87% 29.98 in 10.0 mi Calm Calm - N/A   Mostly Cloudy
8:53 PM 63.0 °F 59.0 °F 87% 29.98 in 10.0 mi Calm Calm - N/A   Overcast
9:53 PM 63.0 °F 57.9 °F 84% 29.98 in 10.0 mi Calm Calm - N/A   Overcast
10:53 PM 62.1 °F 55.9 °F 80% 29.99 in 10.0 mi Calm Calm - N/A   Mostly Cloudy
11:53 PM 60.1 °F 55.0 °F 83% 29.99 in 10.0 mi Calm Calm - N/A   Clear